This is the latest recevied weather packets stored in our database for station/object WA1TYB-13. If no packets are shown the sender has not sent any weather packets the latest 10 day(s).
| Time | Temp. | Humidity | Pressure | Rain* | Wind** | Luminosity | Snow |
|---|---|---|---|---|---|---|---|
| 1788570861 | 21.11° C | 35% | 1014.4 hPa | 0 mm | - | 6 W/m² | - |
| 1788570556 | 21.11° C | 35% | 1014.3 hPa | 0 mm | - | 8 W/m² | - |
| 1788570251 | 21.67° C | 34% | 1014.3 hPa | 0 mm | - | 15 W/m² | - |
| 1788569947 | 21.67° C | 35% | 1014 hPa | 0 mm | - | 22 W/m² | - |
| 1788569643 | 21.67° C | 33% | 1013.8 hPa | 0 mm | - | 21 W/m² | - |
| 1788569338 | 21.67° C | 32% | 1013.8 hPa | 0 mm | - | 24 W/m² | - |
| 1788569038 | 21.67° C | 33% | 1013.6 hPa | 0 mm | - | 33 W/m² | - |
| 1788568733 | 21.67° C | 32% | 1013.5 hPa | 0 mm | - | 50 W/m² | - |
| 1788568429 | 21.67° C | 34% | 1013.8 hPa | 0 mm | - | 47 W/m² | - |
| 1788568124 | 21.67° C | 36% | 1013.3 hPa | 0 mm | - | 48 W/m² | - |
| 1788567824 | 22.22° C | 36% | 1013.4 hPa | 0 mm | - | 57 W/m² | - |
| 1788567518 | 22.22° C | 31% | 1013.8 hPa | 0 mm | - | 72 W/m² | - |
| 1788567213 | 22.22° C | 31% | 1013.4 hPa | 0 mm | - | 82 W/m² | - |
| 1788566908 | 22.78° C | 30% | 1013.5 hPa | 0 mm | - | 84 W/m² | - |
| 1788566604 | 22.22° C | 29% | 1013.8 hPa | 0 mm | - | 81 W/m² | - |
| 1788566299 | 22.78° C | 28% | 1013.4 hPa | 0 mm | - | 55 W/m² | - |
| 1788565994 | 23.33° C | 27% | 1013.5 hPa | 0 mm | - | 78 W/m² | - |
| 1788565689 | 23.33° C | 25% | 1013.4 hPa | 0 mm | - | 88 W/m² | - |
| 1788565384 | 23.33° C | 24% | 1013.4 hPa | 0 mm | - | 65 W/m² | - |
| 1788565079 | 23.89° C | 24% | 1013.6 hPa | 0 mm | - | 97 W/m² | - |
| 1788564770 | 24.44° C | 23% | 1013.3 hPa | 0 mm | - | 216 W/m² | - |
| 1788564466 | 23.89° C | 24% | 1013.3 hPa | 0 mm | - | 294 W/m² | - |
| 1788564162 | 23.33° C | 26% | 1013.4 hPa | 0 mm | - | 92 W/m² | - |
| 1788563883 | 23.33° C | 24% | 1013 hPa | 0 mm | - | 85 W/m² | - |
| 1788563553 | 23.33° C | 24% | 1013.4 hPa | 0 mm | - | 106 W/m² | - |
* Rain latest hour (hover to see other rain measurements)
** Current wind speed in m/s (hover to see current wind gust speed)